Wind_Speed
80 77 76 81 78 77 77 76 74 72 72 69 70 71 72 74 74 73 73 73 73 77 79 81 82 83 85 88 90 92 93 92 93 95 94 96 95 92 92 89 84 74 71 76
82 79 81 83 84 82 80 77 74 74 75 73 72 72 74 77 76 74 75 75 76 79 82 85 88 90 93 95 96 99 100 100 101 102 102 102 101 99 98 99 97 93 85 80
82 80 82 82 83 80 74 74 76 75 77 77 74 71 74 76 80 83 84 86 88 91 93 94 97 99 103 105 104 104 104 104 104 105 105 108 110 108 107 105 103 98 94 91
81 83 81 78 76 78 75 79 78 79 81 79 79 73 74 77 81 86 89 92 95 98 101 104 105 106 108 110 109 108 105 101 102 104 104 107 106 106 110 108 106 98 96 95
84 83 77 76 78 77 78 81 83 84 83 81 81 82 73 81 87 93 95 97 101 106 110 111 112 111 112 108 109 107 106 102 98 98 99 100 100 101 101 101 101 102 98 97
86 85 81 80 81 82 83 84 86 88 88 83 88 89 77 86 92 97 101 103 108 112 114 115 111 108 107 105 100 101 96 89 83 82 81 80 83 84 86 89 92 96 100 97
88 85 84 83 82 84 85 86 87 88 90 88 91 92 88 92 96 102 107 111 112 114 111 109 108 105 94 90 91 87 81 76 72 69 68 67 66 70 74 78 85 87 91 95
91 89 90 89 88 89 89 91 92 92 92 92 94 95 97 99 103 107 111 116 115 110 106 100 93 86 81 75 73 72 69 66 62 57 57 58 59 62 66 70 76 83 86 89
95 92 96 96 94 94 96 98 98 100 100 98 96 99 98 103 108 114 117 110 105 101 91 83 81 77 70 64 62 59 58 61 58 54 50 51 53 56 60 64 69 74 80 83
99 96 99 101 103 104 104 99 102 103 102 103 101 102 103 104 110 112 112 108 96 86 78 78 72 68 62 58 59 56 55 58 55 54 46 48 46 52 54 58 65 70 77 79
106 104 100 104 105 106 106 107 106 107 106 106 105 99 101 104 107 103 95 87 81 76 66 65 63 62 57 53 53 50 48 49 41 38 39 40 40 39 43 53 60 64 71 72
108 109 106 108 108 108 109 109 110 111 110 111 105 91 97 98 93 89 78 76 69 63 56 56 57 56 53 48 45 39 39 41 37 36 37 40 42 42 44 49 52 56 61 64
111 111 110 109 108 108 110 111 114 109 109 103 99 87 85 81 79 74 69 60 54 51 49 48 49 48 47 43 39 37 37 36 35 34 33 37 46 49 44 40 43 47 51 55
104 107 106 103 105 107 103 99 96 94 87 84 76 76 71 73 72 62 54 49 46 44 44 43 41 41 41 39 38 36 38 37 37 37 37 39 41 41 38 38 43 44 46 51
93 88 89 90 89 86 80 77 73 69 70 74 67 68 69 70 60 50 45 44 44 42 43 43 42 39 39 38 40 39 40 43 38 42 41 39 41 37 37 38 38 40 44 48
82 80 79 76 78 76 68 62 62 63 67 66 66 64 67 56 49 46 43 42 42 43 43 43 42 40 39 40 38 37 37 38 37 41 40 40 37 38 37 38 42 45 45 39
82 81 79 76 72 68 59 63 65 68 69 66 62 61 54 49 44 43 46 43 39 42 44 45 46 45 43 40 41 40 39 38 37 37 38 38 39 39 39 39 40 41 37 35
69 71 75 75 72 68 63 61 65 66 62 60 58 51 47 44 43 43 43 42 42 44 45 46 47 46 46 46 46 45 42 42 42 43 43 42 39 36 35 36 40 35 30 29
57 59 63 67 64 58 55 54 58 55 52 54 47 43 42 40 41 44 44 46 48 52 54 54 52 50 50 49 48 46 45 43 43 42 41 38 34 33 31 31 28 23 22 22
50 50 52 51 51 48 45 48 51 45 45 44 42 39 38 40 43 45 48 52 53 51 51 51 50 50 50 50 48 44 43 41 40 40 38 35 34 32 27 24 22 21 21 22
45 46 46 46 45 39 40 45 41 41 38 40 39 38 41 44 45 49 51 50 47 45 44 41 37 38 40 42 42 41 40 40 40 39 38 35 35 30 25 23 23 24 24 29
44 45 42 41 40 37 39 37 36 34 36 37 36 37 41 45 48 49 48 46 43 40 37 34 32 32 31 32 32 33 33 34 35 35 34 33 30 26 25 25 25 26 29 33
41 38 38 39 35 33 35 34 33 32 33 33 35 38 42 48 51 47 45 41 41 38 34 31 28 27 27 27 26 25 24 26 28 29 30 30 28 29 29 29 30 31 32 35
35 36 33 31 31 32 32 30 30 31 31 34 35 37 44 45 44 42 40 38 36 33 30 26 24 24 23 23 23 24 25 26 26 28 28 29 30 30 29 29 31 36 36 36
32 28 29 29 30 30 29 29 29 30 31 32 35 40 42 39 36 38 36 33 30 27 23 21 20 21 22 22 22 24 25 26 27 27 29 31 31 31 33 32 37 40 42 41
28 27 25 28 28 28 28 28 29 29 29 32 36 39 36 34 35 32 29 27 24 22 19 18 19 20 20 21 22 24 25 26 26 27 29 31 33 33 36 36 38 40 46 47
Wind_Direction
279 281 279 279 281 280 281 282 283 280 277 278 278 277 275 276 275 274 271 270 272 271 272 274 275 274 273 272 273 274 273 272 271 271 269 269 267 264 265 264 264 257 250 241
280 282 280 279 278 279 279 279 277 275 276 276 276 273 274 272 270 269 272 273 274 274 274 275 275 275 276 276 276 275 273 271 270 269 268 268 267 267 266 264 263 260 255 250
280 278 277 281 281 278 275 275 274 275 274 276 273 273 274 270 269 270 272 274 275 275 276 277 279 279 280 280 280 280 278 275 272 269 269 268 267 266 266 264 261 259 256 253
278 276 279 279 278 276 276 273 272 272 274 274 275 273 272 273 274 276 276 278 278 278 278 278 280 282 283 283 283 282 280 276 274 273 272 270 267 265 265 264 260 257 255 252
276 276 277 276 273 273 271 273 274 274 275 274 276 273 273 273 275 277 279 281 282 282 282 283 284 284 284 284 282 282 280 277 274 269 267 265 263 261 262 260 258 257 252 251
273 274 273 272 273 274 272 272 274 276 276 277 276 277 277 277 277 279 280 281 281 282 283 285 287 286 285 285 283 281 279 278 274 271 267 263 260 259 257 255 252 249 248 245
272 270 271 273 274 275 276 275 275 276 276 276 276 278 280 279 280 280 281 281 283 286 288 290 288 286 285 283 283 281 280 276 274 271 268 264 261 258 257 255 253 250 248 247
271 269 271 273 272 273 275 275 276 276 276 276 279 282 282 282 282 283 283 284 288 289 290 289 286 284 283 280 279 279 279 278 278 275 272 266 260 255 253 253 253 252 249 250
270 271 271 273 273 274 276 275 278 278 277 276 278 281 283 284 286 287 288 292 295 293 290 285 283 282 280 278 277 276 276 277 276 274 270 268 263 257 252 249 250 253 252 250
268 268 271 274 275 276 278 278 279 280 281 280 281 283 285 287 287 289 292 294 292 289 286 283 279 278 278 277 276 275 273 270 268 266 266 264 258 260 254 253 252 253 253 253
267 266 269 271 273 275 278 280 281 280 284 284 283 284 285 286 286 289 291 289 287 287 284 281 280 279 277 274 273 274 275 275 271 260 265 270 270 266 257 253 256 255 256 258
266 267 268 269 271 273 275 279 281 284 284 285 286 288 287 287 289 291 289 289 288 285 283 281 278 277 273 270 271 275 275 272 263 265 268 268 258 257 257 255 254 257 258 258
266 268 268 268 269 271 274 277 280 281 283 286 285 288 286 287 288 289 288 284 281 284 285 282 279 278 274 270 267 265 271 272 268 261 259 267 260 259 261 263 262 258 259 260
268 270 270 271 272 273 276 278 279 280 284 282 287 285 287 289 290 289 284 285 288 287 285 282 280 278 277 277 275 271 266 264 265 257 263 266 266 265 263 267 265 266 262 260
270 270 272 273 274 274 275 279 282 281 280 281 282 286 289 290 287 284 283 286 286 284 285 285 285 284 282 281 279 273 263 259 259 270 267 262 264 270 273 270 271 273 268 261
268 270 270 272 272 273 276 279 280 276 276 280 282 287 288 282 280 283 285 283 278 273 274 278 278 273 272 274 274 270 267 264 264 265 263 262 267 266 271 279 279 272 268 270
267 267 268 269 271 273 273 276 276 276 278 281 284 286 279 279 280 280 282 283 280 272 270 269 270 269 268 268 268 266 262 260 260 260 263 265 267 270 273 270 271 272 275 271
261 263 262 264 266 268 272 272 271 272 276 280 282 278 278 277 274 277 280 281 279 277 275 272 269 267 265 263 261 260 261 262 261 261 262 264 266 266 266 269 266 268 265 261
256 257 258 259 262 265 266 263 265 270 275 276 277 277 278 276 278 279 279 277 279 279 278 277 273 269 266 265 263 260 258 257 258 259 261 262 263 265 269 264 261 252 247 240
249 252 256 258 261 258 257 257 262 269 270 273 275 278 277 279 281 281 279 277 279 281 280 277 274 270 266 264 262 260 258 258 259 259 261 264 269 269 266 259 244 230 225 213
243 245 249 253 256 253 249 255 263 265 268 274 277 277 281 284 284 284 285 287 288 286 282 278 272 265 263 262 261 259 255 253 254 257 260 263 265 264 257 243 226 219 212 198
238 241 247 249 251 246 251 255 257 264 270 273 275 279 284 286 287 290 292 293 291 287 283 279 272 266 263 260 259 257 255 252 251 252 254 255 254 249 241 232 224 214 213 206
236 240 242 246 244 242 245 251 258 266 271 273 277 282 287 289 293 295 293 293 292 289 285 279 270 262 259 256 255 252 249 245 243 242 242 243 241 237 230 223 216 213 216 212
233 237 238 239 236 240 246 256 265 269 273 276 280 287 287 291 291 292 295 293 288 285 280 273 265 259 255 252 248 243 241 240 239 238 238 236 234 234 235 230 216 218 222 219
231 233 229 231 239 248 255 264 269 272 275 279 287 289 291 292 292 293 293 290 285 278 271 264 257 251 248 247 243 240 239 238 237 234 231 233 233 232 231 230 223 223 227 227
218 221 229 237 243 252 260 267 271 272 276 284 288 290 293 293 293 292 293 289 281 273 262 253 245 241 238 237 236 235 234 234 231 229 232 233 233 236 233 232 228 232 233 234
Height
10617 10627 10626 10616 10620 10620 10621 10621 10622 10622 10621 10629 10627 10625 10618 10612 10609 10611 10607 10603 10607 10604 10601 10598 10598 10598 10596 10594 10592 10589 10589 10589 10584 10582 10585 10584 10585 10590 10593 10598 10605 10613 10621 10629
10600 10607 10602 10599 10599 10603 10603 10601 10602 10604 10605 10608 10610 10608 10601 10595 10593 10591 10585 10583 10583 10581 10579 10577 10574 10573 10570 10569 10569 10565 10564 10564 10560 10557 10557 10555 10557 10561 10565 10567 10574 10583 10592 10601
10585 10585 10579 10580 10581 10581 10579 10579 10577 10584 10582 10585 10589 10593 10586 10579 10573 10571 10567 10563 10559 10557 10554 10552 10548 10547 10543 10539 10538 10535 10533 10532 10531 10530 10529 10526 10526 10530 10534 10538 10542 10550 10561 10571
10570 10559 10563 10565 10563 10560 10565 10554 10558 10559 10562 10566 10565 10578 10569 10563 10554 10545 10542 10539 10534 10528 10524 10523 10523 10520 10513 10504 10502 10500 10496 10496 10495 10493 10492 10491 10492 10498 10496 10501 10507 10519 10529 10540
10548 10543 10547 10547 10542 10547 10547 10540 10536 10538 10541 10544 10545 10543 10562 10546 10536 10523 10519 10514 10508 10500 10495 10491 10488 10487 10480 10474 10467 10462 10458 10460 10460 10458 10456 10456 10458 10462 10465 10470 10476 10484 10496 10506
10529 10531 10527 10525 10524 10523 10525 10526 10522 10519 10517 10528 10515 10515 10544 10522 10512 10503 10494 10488 10482 10474 10470 10465 10459 10453 10448 10441 10436 10429 10424 10426 10426 10426 10426 10427 10429 10434 10436 10439 10443 10450 10456 10469
10512 10510 10504 10507 10506 10499 10501 10502 10503 10502 10499 10503 10499 10497 10507 10498 10489 10479 10468 10460 10455 10449 10445 10438 10427 10419 10419 10413 10404 10400 10397 10397 10397 10399 10400 10402 10405 10409 10411 10414 10418 10425 10431 10440
10492 10492 10484 10487 10487 10481 10481 10479 10478 10477 10479 10482 10477 10477 10476 10470 10460 10451 10440 10432 10431 10424 10419 10407 10396 10391 10392 10390 10384 10379 10376 10377 10377 10379 10381 10384 10385 10386 10389 10395 10398 10402 10411 10419
10469 10474 10466 10463 10463 10463 10462 10458 10456 10453 10454 10457 10462 10455 10455 10443 10429 10414 10408 10406 10402 10394 10384 10375 10369 10367 10367 10368 10365 10364 10362 10361 10363 10361 10364 10366 10368 10371 10374 10376 10379 10382 10386 10392
10447 10452 10447 10442 10436 10437 10433 10436 10434 10426 10429 10429 10434 10433 10430 10421 10405 10395 10387 10380 10371 10366 10360 10354 10350 10348 10348 10349 10347 10349 10350 10349 10349 10349 10351 10353 10352 10356 10359 10361 10362 10365 10365 10369
10416 10422 10431 10423 10421 10415 10412 10413 10412 10405 10405 10403 10406 10418 10406 10394 10385 10378 10371 10361 10350 10344 10341 10336 10333 10330 10331 10332 10332 10335 10339 10339 10338 10338 10340 10341 10340 10342 10345 10347 10350 10351 10351 10354
10392 10392 10403 10399 10398 10400 10394 10393 10388 10383 10386 10378 10376 10399 10380 10367 10362 10356 10348 10340 10333 10327 10325 10321 10317 10315 10316 10317 10320 10325 10326 10326 10325 10326 10328 10330 10331 10333 10335 10335 10337 10337 10337 10339
10367 10366 10372 10377 10379 10377 10374 10374 10367 10365 10362 10365 10352 10363 10353 10349 10343 10337 10330 10324 10317 10312 10309 10306 10303 10302 10301 10304 10308 10311 10313 10314 10316 10317 10316 10318 10321 10324 10322 10320 10321 10322 10324 10326
10333 10342 10343 10348 10352 10351 10355 10351 10349 10346 10345 10336 10342 10335 10333 10326 10323 10319 10313 10309 10304 10299 10296 10293 10291 10290 10289 10291 10294 10298 10301 10302 10304 10304 10305 10306 10308 10308 10308 10309 10310 10311 10312 10311
10312 10319 10320 10325 10324 10326 10332 10335 10331 10327 10320 10317 10325 10320 10313 10308 10305 10304 10301 10296 10292 10288 10285 10282 10280 10279 10278 10280 10283 10284 10285 10286 10288 10290 10291 10292 10295 10296 10297 10299 10299 10299 10298 10298
10294 10299 10300 10306 10302 10305 10314 10318 10313 10307 10304 10306 10306 10305 10296 10293 10291 10289 10287 10285 10281 10278 10276 10274 10272 10272 10272 10272 10273 10274 10275 10276 10276 10280 10281 10283 10284 10286 10287 10288 10288 10288 10287 10292
10274 10279 10281 10284 10285 10287 10303 10298 10294 10289 10287 10289 10291 10287 10283 10280 10277 10275 10273 10271 10270 10269 10266 10265 10264 10264 10263 10264 10264 10265 10265 10265 10267 10269 10270 10271 10273 10276 10278 10279 10278 10277 10280 10281
10256 10257 10258 10263 10268 10274 10280 10281 10274 10274 10274 10275 10275 10273 10270 10267 10264 10263 10261 10260 10257 10256 10255 10253 10252 10252 10252 10252 10253 10254 10255 10256 10256 10258 10259 10261 10264 10267 10268 10269 10268 10271 10273 10275
10235 10237 10239 10240 10250 10261 10263 10260 10257 10260 10263 10260 10262 10260 10258 10255 10252 10250 10250 10247 10244 10241 10238 10237 10237 10237 10238 10238 10239 10241 10243 10245 10247 10248 10249 10251 10254 10256 10259 10259 10260 10262 10265 10267
10220 10221 10223 10231 10236 10243 10247 10244 10245 10251 10250 10250 10250 10249 10246 10243 10241 10239 10236 10232 10229 10226 10223 10221 10220 10220 10221 10221 10223 10228 10231 10233 10234 10235 10238 10241 10243 10245 10247 10249 10251 10254 10258 10261
10205 10209 10213 10217 10223 10231 10231 10230 10236 10238 10240 10237 10238 10236 10234 10231 10228 10225 10221 10217 10214 10211 10209 10207 10207 10207 10207 10207 10209 10212 10215 10219 10222 10225 10228 10231 10232 10235 10238 10241 10244 10248 10253 10256
10191 10197 10204 10208 10213 10218 10217 10223 10226 10228 10229 10229 10228 10226 10223 10218 10214 10211 10206 10202 10199 10197 10195 10194 10193 10194 10195 10196 10198 10201 10204 10208 10212 10215 10218 10220 10223 10226 10229 10233 10237 10242 10247 10251
10182 10188 10194 10200 10205 10208 10211 10215 10217 10218 10220 10219 10219 10218 10214 10207 10201 10197 10194 10191 10188 10185 10183 10182 10182 10183 10184 10186 10189 10192 10194 10197 10200 10204 10207 10210 10213 10216 10220 10224 10229 10234 10240 10244
10176 10181 10188 10192 10196 10201 10203 10206 10208 10210 10211 10210 10210 10208 10204 10199 10193 10187 10184 10182 10178 10175 10174 10173 10173 10174 10176 10178 10180 10183 10185 10188 10192 10196 10199 10202 10205 10209 10214 10219 10222 10227 10231 10235
10170 10177 10181 10185 10189 10193 10195 10198 10200 10201 10202 10202 10200 10197 10193 10189 10184 10180 10176 10172 10169 10168 10166 10166 10166 10168 10170 10172 10174 10177 10179 10182 10186 10189 10192 10195 10199 10203 10207 10212 10215 10218 10221 10225
10165 10170 10176 10180 10183 10186 10189 10191 10193 10194 10193 10193 10190 10186 10183 10180 10176 10172 10168 10165 10162 10161 10160 10160 10161 10163 10165 10167 10169 10171 10173 10177 10180 10183 10186 10189 10192 10196 10199 10202 10205 10208 10211 10213